RPA3562 KEWR-KMSY

Flight info

Callsign RPA3562
Flight time N/A
Altitude 32000
Route LANNA J48 CSN FANPO Q40 NIOLA MERDN TRSSH1
Aircraft E75L/M-SDE3GILORVW/S

Departure

Time 2026-04-22 23:06
Airport Newark Liberty International Airport (KEWR)

Arrival

Time N/A
Airport Louis Armstrong New Orleans International Airport (KMSY)
Time Latitude Longitude Altitude Speed Heading
2026-04-22 22:41 40.69745 -74.17446 20 ft 0 kts 311°
2026-04-22 22:58 40.69737 -74.17434 20 ft 4 kts 313°
2026-04-22 22:58 40.69717 -74.17411 20 ft 4 kts 329°
2026-04-22 22:59 40.69694 -74.17406 20 ft 3 kts 33°
2026-04-22 22:59 40.69691 -74.17409 20 ft 3 kts 41°
2026-04-22 23:01 40.69695 -74.17404 20 ft 3 kts 40°
2026-04-22 23:01 40.69725 -74.17370 20 ft 8 kts 40°
2026-04-22 23:01 40.69778 -74.17310 22 ft 11 kts 42°
2026-04-22 23:01 40.69837 -74.17235 20 ft 11 kts 58°
2026-04-22 23:02 40.69809 -74.17158 21 ft 11 kts 140°
2026-04-22 23:02 40.69739 -74.17089 21 ft 14 kts 148°
2026-04-22 23:02 40.69652 -74.17031 21 ft 10 kts 153°
2026-04-22 23:02 40.69634 -74.16953 20 ft 10 kts 69°
2026-04-22 23:03 40.69658 -74.16857 20 ft 12 kts 71°
2026-04-22 23:03 40.69687 -74.16754 22 ft 11 kts 60°
2026-04-22 23:03 40.69751 -74.16699 20 ft 12 kts 26°
2026-04-22 23:03 40.69836 -74.16644 19 ft 15 kts 25°
2026-04-22 23:04 40.69935 -74.16582 20 ft 17 kts 25°
2026-04-22 23:04 40.70036 -74.16517 19 ft 15 kts 26°
2026-04-22 23:04 40.70065 -74.16454 18 ft 9 kts 89°
2026-04-22 23:04 40.70055 -74.16374 17 ft 7 kts 119°
2026-04-22 23:05 40.70015 -74.16370 19 ft 7 kts 205°
2026-04-22 23:05 40.69921 -74.16431 18 ft 37 kts 206°
2026-04-22 23:05 40.69501 -74.16699 21 ft 98 kts 206°
2026-04-22 23:05 40.68716 -74.17199 21 ft 151 kts 206°
2026-04-22 23:06 40.67669 -74.17855 312 ft 173 kts 205°
2026-04-22 23:06 40.66466 -74.18438 770 ft 193 kts 188°
2026-04-22 23:06 40.65109 -74.18294 1463 ft 202 kts 165°
2026-04-22 23:06 40.63750 -74.17820 2434 ft 203 kts 166°
2026-04-22 23:07 40.62295 -74.17650 2752 ft 218 kts 190°
2026-04-22 23:07 40.60853 -74.18323 3277 ft 226 kts 210°
2026-04-22 23:07 40.59645 -74.19829 3331 ft 256 kts 243°
2026-04-22 23:07 40.59256 -74.22115 3986 ft 258 kts 267°
2026-04-22 23:08 40.59225 -74.23686 4539 ft 257 kts 269°
2026-04-22 23:08 40.59157 -74.26773 5630 ft 254 kts 266°
2026-04-22 23:08 40.58993 -74.29115 6364 ft 256 kts 264°
2026-04-22 23:08 40.58845 -74.30664 6837 ft 257 kts 263°
2026-04-22 23:09 40.58614 -74.33014 7462 ft 261 kts 264°
2026-04-22 23:09 40.58415 -74.35396 8077 ft 264 kts 266°
2026-04-22 23:09 40.58257 -74.37802 8666 ft 267 kts 267°
2026-04-22 23:09 40.58116 -74.40263 9317 ft 269 kts 268°
2026-04-22 23:10 40.57987 -74.42720 9911 ft 271 kts 268°
2026-04-22 23:10 40.57853 -74.45160 10211 ft 285 kts 268°
2026-04-22 23:10 40.57736 -74.47904 10244 ft 307 kts 269°
2026-04-22 23:10 40.57663 -74.50555 10348 ft 321 kts 270°
2026-04-22 23:11 40.57581 -74.53482 10893 ft 321 kts 269°
2026-04-22 23:11 40.57440 -74.56395 11525 ft 319 kts 267°
2026-04-22 23:11 40.57270 -74.59159 12094 ft 319 kts 267°
2026-04-22 23:11 40.57105 -74.62105 12584 ft 322 kts 268°
2026-04-22 23:12 40.56987 -74.64891 13075 ft 324 kts 269°
2026-04-22 23:12 40.56882 -74.67848 13580 ft 327 kts 269°
2026-04-22 23:12 40.56783 -74.70849 14092 ft 329 kts 270°
2026-04-22 23:12 40.56685 -74.73844 14619 ft 331 kts 270°
2026-04-22 23:13 40.56588 -74.76758 15107 ft 334 kts 270°
2026-04-22 23:13 40.56483 -74.79862 15633 ft 336 kts 270°
2026-04-22 23:13 40.56389 -74.82842 16133 ft 338 kts 270°
2026-04-22 23:13 40.56300 -74.86010 16635 ft 341 kts 271°